Folsom Lake Weather Center

Moon Phase Calendar



Folsom Lake Water Level
Online Cameras

 


      

Current Conditions in Granite Bay
3/3/2024 6:36:25 PM

46°F
Feels Like 43
Clouds
Humidity
89%
Pressure
29.97"
Wind
6 mph (W)
Dew Point
43°F
UV Index
0/10 (Low)
Visibility
6 mi

Hourly Forecast

Date & Time Sun, Mar 3
6:00 PM
Sun, Mar 3
7:00 PM
Sun, Mar 3
8:00 PM
Sun, Mar 3
9:00 PM
Sun, Mar 3
10:00 PM
Sun, Mar 3
11:00 PM
Mon, Mar 4
12:00 AM
Mon, Mar 4
1:00 AM
Mon, Mar 4
2:00 AM
Mon, Mar 4
3:00 AM
Mon, Mar 4
4:00 AM
Mon, Mar 4
5:00 AM
Mon, Mar 4
6:00 AM
Mon, Mar 4
7:00 AM
Mon, Mar 4
8:00 AM
Mon, Mar 4
9:00 AM
Mon, Mar 4
10:00 AM
Mon, Mar 4
11:00 AM
Mon, Mar 4
12:00 PM
Mon, Mar 4
1:00 PM
Mon, Mar 4
2:00 PM
Mon, Mar 4
3:00 PM
Mon, Mar 4
4:00 PM
Mon, Mar 4
5:00 PM
Mon, Mar 4
6:00 PM
Mon, Mar 4
7:00 PM
Mon, Mar 4
8:00 PM
Mon, Mar 4
9:00 PM
Mon, Mar 4
10:00 PM
Mon, Mar 4
11:00 PM
Tue, Mar 5
12:00 AM
Tue, Mar 5
1:00 AM
Tue, Mar 5
2:00 AM
Tue, Mar 5
3:00 AM
Tue, Mar 5
4:00 AM
Tue, Mar 5
5:00 AM
Tue, Mar 5
6:00 AM
Tue, Mar 5
7:00 AM
Tue, Mar 5
8:00 AM
Tue, Mar 5
9:00 AM
Tue, Mar 5
10:00 AM
Tue, Mar 5
11:00 AM
Tue, Mar 5
12:00 PM
Tue, Mar 5
1:00 PM
Tue, Mar 5
2:00 PM
Tue, Mar 5
3:00 PM
Tue, Mar 5
4:00 PM
Tue, Mar 5
5:00 PM
Condition
Rain

Clouds

Clouds

Rain

Rain

Clouds

Clouds

Clouds

Clouds

Clouds

Clouds

Clouds

Clouds

Clouds

Clouds

Clouds

Clouds

Clouds

Clouds

Clouds

Clouds

Clouds

Clouds

Clouds

Clouds

Clouds

Clouds

Clouds

Clouds

Clouds

Clouds

Clouds

Clouds

Clouds

Clouds

Clouds

Clouds

Clouds

Clouds

Clouds

Clouds

Clouds

Clouds

Clouds

Clouds

Clouds

Clouds

Clouds
Temperature 46°F46°F46°F45°F44°F43°F40°F40°F39°F39°F39°F39°F39°F40°F43°F46°F47°F49°F51°F52°F52°F52°F52°F50°F48°F46°F45°F44°F43°F43°F43°F43°F43°F43°F42°F42°F44°F45°F46°F48°F50°F52°F54°F56°F56°F56°F56°F55°F
Feels Like 41°F42°F41°F41°F41°F39°F37°F37°F36°F36°F36°F36°F36°F38°F41°F43°F45°F47°F49°F49°F49°F49°F49°F48°F48°F46°F43°F42°F41°F41°F41°F41°F41°F41°F40°F40°F42°F43°F46°F48°F48°F50°F52°F54°F54°F54°F54°F53°F
Cloudiness 100%100%100%100%100%100%100%99%100%100%100%100%100%100%100%100%100%100%100%100%100%100%100%100%100%100%100%100%100%100%100%100%100%100%100%95%98%98%99%99%99%100%100%100%100%100%100%100%
Visibility 6 mi6 mi6 mi6 mi6 mi6 mi6 mi6 mi6 mi6 mi6 mi6 mi6 mi6 mi6 mi6 mi6 mi6 mi6 mi6 mi6 mi6 mi6 mi6 mi6 mi6 mi6 mi6 mi6 mi6 mi6 mi6 mi6 mi6 mi6 mi6 mi6 mi6 mi6 mi6 mi6 mi6 mi6 mi6 mi6 mi6 mi6 mi6 mi
Precipitation 96%74%72%92%88%46%46%46%42%42%42%20%14%14%14%14%14%16%16%18%18%18%18%18%18%12%8%8%8%2%2%2%2%6%6%6%6%6%6%6%6%6%6%2%2%2%2%2%
Humidity 89%89%90%91%92%93%95%95%96%96%95%95%94%93%89%80%73%64%57%55%55%56%59%69%73%77%80%81%82%81%80%79%78%78%78%76%72%71%70%67%62%59%57%56%57%59%61%71%
Dew Point 43°F43°F43°F43°F42°F41°F39°F38°F38°F37°F37°F37°F37°F38°F39°F39°F39°F37°F36°F36°F36°F36°F37°F40°F39°F39°F38°F38°F38°F37°F37°F37°F36°F36°F35°F35°F35°F35°F37°F37°F37°F38°F39°F40°F41°F42°F42°F45°F
Pressure 29.97"29.97"29.97"30"30.03"30.06"30.09"30.12"30.12"30.12"30.12"30.12"30.12"30.15"30.18"30.18"30.18"30.18"30.18"30.15"30.12"30.12"30.12"30.12"30.12"30.12"30.12"30.12"30.12"30.12"30.12"30.12"30.12"30.12"30.09"30.09"30.09"30.09"30.12"30.12"30.09"30.09"30.09"30.06"30.03"30.03"30"30"
Wind Speed 11.5 mph9.8 mph8.9 mph7.6 mph5.5 mph5 mph4.9 mph4.6 mph4.3 mph4.4 mph4.4 mph4.2 mph4 mph3.7 mph3.5 mph4.6 mph5.2 mph5.2 mph5 mph4.9 mph4.8 mph4.6 mph4.3 mph3.1 mph2.4 mph2.6 mph3.4 mph3.8 mph3.8 mph4.1 mph4 mph3.9 mph3.6 mph3.7 mph4.7 mph4.2 mph4 mph3.7 mph3.1 mph2.9 mph3.3 mph3.5 mph3.4 mph3.5 mph3.6 mph3.5 mph2.9 mph2.1 mph
Wind
Direction
209°
SSW
205°
SSW
203°
SSW
195°
SSW
181°
S
161°
SSE
149°
SSE
147°
SSE
138°
SE
134°
SE
129°
SE
129°
SE
127°
SE
126°
SE
143°
SE
163°
SSE
161°
SSE
172°
S
186°
S
194°
SSW
198°
SSW
199°
SSW
199°
SSW
201°
SSW
172°
S
119°
ESE
105°
ESE
101°
E
99°
E
105°
ESE
105°
ESE
103°
ESE
109°
ESE
102°
ESE
93°
E
94°
E
102°
ESE
115°
ESE
124°
SE
129°
SE
158°
SSE
180°
S
180°
S
197°
SSW
202°
SSW
201°
SSW
181°
S
156°
SSE

Daily Forecast

Date High Low Precip. Humidity
Today
Mar 3

Rain
49 °F
40 °F
100%
86%
Monday
Mar 4

Clouds
52 °F
39 °F
46%
57%
Tuesday
Mar 5

Clouds
56 °F
42 °F
6%
57%
Wednesday
Mar 6

Clouds
60 °F
43 °F
4%
56%
Thursday
Mar 7

Rain
57 °F
43 °F
50%
62%
Friday
Mar 8

Clear
59 °F
38 °F
0%
46%
Saturday
Mar 9

Rain
56 °F
43 °F
44%
63%
Sunday
Mar 10

Clouds
56 °F
41 °F
0%
53%
Monday
Mar 11

Rain
51 °F
47 °F
72%
90%
Tuesday
Mar 12

Clouds
58 °F
44 °F
40%
52%
Wednesday
Mar 13

Rain
56 °F
46 °F
70%
81%
Thursday
Mar 14

Clouds
66 °F
42 °F
0%
52%
Friday
Mar 15

Clouds
69 °F
47 °F
0%
46%
Saturday
Mar 16

Clouds
72 °F
53 °F
0%
45%
Sunday
Mar 17

Clouds
70 °F
55 °F
0%
53%
Monday
Mar 18

Rain
61 °F
51 °F
100%
65%

Temperature 8-14 Day Outlook



Precipitation 8-14 Day Outlook






About Us
Contact Us
Site Map
Search Site
Advertise With Us
   
Folsom.USLakes.info
THE FOLSOM LAKE WEBSITE

Copyright 2024, Lakes Online
Privacy    |    Legal